Terug naar catalogus

DMSP 5D-2 F13 DEB

ActiefSSO
NORAD 40504·DEBRIS·🇺🇸 United States

Gelanceerd Mar 24, 1995 vanaf Vandenberg Space Force Base

Loading…

Volgende Passages (komende 24 uur)

TLE

VersSource: Space-Track

Epoch: Sep 12, 2026, 11:15 UTC

1 40504U 95015CT  26255.46926530  .00001666  00000-0  78362-3 0  9996
2 40504  99.0377 264.0565 0044774 227.5381 132.2006 14.20905859591385

Volg DMSP 5D-2 F13 DEB in realtime met AllMySat

Download on the App Store